Weather History for St. Louis, MO

Change the Weather History Date:

Tuesday, March 5, 2013

  Actual Average Record
Temperature  
Mean Temperature 38 °F 42 °F  
Max Temperature 43 °F 52 °F 84 °F (1956)
Min Temperature 32 °F 33 °F -5 °F (1960)
Degree Days  
Heating Degree Days 27 23  
Month to date heating degree days 151 118  
Since 1 July heating degree days 3468 3716  
Cooling Degree Days 0 0  
Month to date cooling degree days 0 0  
Year to date cooling degree days 0 0  
Moisture  
Dew Point 28 °F    
Average Humidity 75    
Maximum Humidity 89    
Minimum Humidity 61    
Precipitation  
Precipitation 0.25 in 0.09 in 2.31 in (1897)
Month to date precipitation 0.35 0.43  
Year to date precipitation 6.74 5.07  
Snow  
Snow 0.00 in 0.10 in 2.30 in (1943)
Month to date snowfall 0.8 0.5  
Since 1 July snowfall 14.4 15.5  
Snow Depth 0.00 in    
Sea Level Pressure  
Sea Level Pressure 29.96 in    
Wind  
Wind Speed 16 mph (WNW)    
Max Wind Speed 32 mph    
Max Gust Speed 44 mph    
Visibility 5 miles    
Events Fog , Rain , Snow    
T = Trace of Precipitation, MM = Missing Value Source: NWS Daily Summary

Daily Weather History Graph

Daily Weather History Graph

Search for Another Location

Airport:

Trip Planner

Search our weather history database for the weather conditions in past years. The results will help you decide how hot, cold, wet, or windy it might be!

Date:

Astronomy

Mar. 05, 2013 Rise Set
Actual Time 6:27 AM CST 5:58 PM CST
Civil Twilight 6:00 AM CST 6:25 PM CST
Nautical Twilight 5:30 AM CST 6:56 PM CST
Astronomical Twilight 4:59 AM CST 7:27 PM CST
Moon 1:37 AM CST (3/5) 11:40 AM CST (3/5)
Length of Visible Light 12h 24m
Length of Day
11h 31m
Last Quarter, 40% of the Moon is Illuminated
Mar 5
Last Quarter
Mar 11
New
Mar 19
First Quarter
Mar 27
Full
Apr 2
Last Quarter

Hourly Weather History & Observations

Time (CST) Temp. Windchill Dew Point Humidity Pressure Visibility Wind Dir Wind Speed Gust Speed Precip Events Conditions
1:51 AM 39.9 °F 36.7 °F 32.0 °F 73% 29.83 in 10.0 mi North 4.6 mph - N/A   Overcast
2:51 AM 41.0 °F 38.0 °F 30.9 °F 67% 29.81 in 10.0 mi NNE 4.6 mph - N/A   Overcast
3:51 AM 41.0 °F 39.0 °F 30.9 °F 67% 29.82 in 10.0 mi NNW 3.5 mph - N/A   Overcast
4:37 AM 39.2 °F 34.2 °F 30.2 °F 70% 29.83 in 10.0 mi NW 6.9 mph - N/A   Overcast
4:51 AM 39.0 °F 33.4 °F 32.0 °F 76% 29.85 in 10.0 mi WNW 8.1 mph - N/A   Overcast
5:51 AM 37.0 °F 28.5 °F 33.1 °F 86% 29.88 in 5.0 mi WNW 13.8 mph - 0.01 in Rain Light Rain
6:00 AM 37.4 °F 29.3 °F 33.8 °F 87% 29.87 in 4.0 mi WNW 12.7 mph 21.9 mph 0.00 in Rain Light Rain
6:10 AM 37.4 °F 28.9 °F 33.8 °F 87% 29.87 in 4.0 mi WNW 13.8 mph - 0.00 in Rain , Snow Light Rain
6:23 AM 35.6 °F 27.5 °F 32.0 °F 87% 29.87 in 3.0 mi WNW 11.5 mph - 0.01 in Rain , Snow Light Rain
6:36 AM 35.6 °F 27.1 °F 32.0 °F 87% 29.87 in 3.0 mi WNW 12.7 mph 20.7 mph N/A Rain , Snow Light Rain
6:51 AM 35.6 °F 26.2 °F 30.2 °F 81% 29.87 in 1.5 mi WNW 15.0 mph - N/A Snow Light Snow
7:04 AM 35.6 °F 26.2 °F 30.2 °F 81% 29.88 in 2.0 mi WNW 15.0 mph - 0.00 in Snow Light Snow
7:18 AM 35.6 °F 27.1 °F 30.2 °F 81% 29.88 in 1.5 mi WNW 12.7 mph - 0.00 in Snow Light Snow
7:51 AM 34.0 °F 25.0 °F 30.9 °F 89% 29.90 in 1.5 mi WNW 12.7 mph 20.7 mph 0.01 in Snow Light Snow
8:04 AM 33.8 °F 24.8 °F 30.2 °F 87% 29.89 in 1.2 mi WNW 12.7 mph 23.0 mph 0.01 in Snow Light Snow
8:42 AM 33.8 °F 24.3 °F 30.2 °F 87% 29.91 in 0.8 mi WNW 13.8 mph 20.7 mph 0.03 in Snow Light Snow
8:51 AM 34.0 °F 25.0 °F 30.9 °F 89% 29.93 in 1.0 mi WNW 12.7 mph 21.9 mph 0.04 in Snow Light Snow
8:59 AM 33.8 °F 25.3 °F 30.2 °F 87% 29.91 in 0.8 mi WNW 11.5 mph - 0.01 in Snow Light Snow
9:19 AM 33.8 °F 24.3 °F 30.2 °F 87% 29.92 in 0.5 mi WNW 13.8 mph 20.7 mph 0.05 in Fog , Snow Snow
9:47 AM 33.8 °F 24.8 °F 30.2 °F 87% 29.91 in 0.5 mi WNW 12.7 mph - 0.09 in Fog , Snow Snow
9:51 AM 34.0 °F 25.5 °F 30.9 °F 89% 29.93 in 0.5 mi WNW 11.5 mph - 0.10 in Fog , Snow Snow
10:25 AM 33.8 °F 25.3 °F 30.2 °F 87% 29.92 in 0.8 mi WNW 11.5 mph 20.7 mph 0.05 in Snow Light Snow
10:46 AM 33.8 °F 24.8 °F 30.2 °F 87% 29.93 in 1.2 mi WNW 12.7 mph - 0.07 in Snow Light Snow
10:51 AM 34.0 °F 24.6 °F 30.9 °F 89% 29.94 in 1.8 mi WNW 13.8 mph - 0.07 in Snow Light Snow
10:57 AM 33.8 °F 23.5 °F 30.2 °F 87% 29.92 in 2.5 mi NW 16.1 mph - 0.00 in Snow Light Snow
11:02 AM 35.6 °F 26.6 °F 30.2 °F 81% 29.93 in 3.0 mi NW 13.8 mph - 0.00 in Snow Light Snow
11:08 AM 33.8 °F 23.2 °F 30.2 °F 87% 29.93 in 5.0 mi NW 17.3 mph 23.0 mph 0.00 in Snow Light Snow
11:43 AM 35.6 °F 24.8 °F 28.4 °F 75% 29.93 in 9.0 mi WNW 19.6 mph 33.4 mph 0.00 in Snow Light Snow
11:51 AM 35.1 °F 25.5 °F 28.0 °F 76% 29.96 in 9.0 mi WNW 15.0 mph 31.1 mph 0.00 in   Overcast
12:51 PM 35.1 °F 24.5 °F 27.0 °F 72% 29.97 in 10.0 mi WNW 18.4 mph 32.2 mph N/A   Overcast
1:29 PM 37.4 °F 25.4 °F 24.8 °F 60% 29.95 in 10.0 mi NW 27.6 mph 36.8 mph N/A   Mostly Cloudy
1:51 PM 35.1 °F 23.5 °F 25.0 °F 67% 29.98 in 10.0 mi WNW 21.9 mph 34.5 mph N/A   Overcast
2:51 PM 34.0 °F 21.3 °F 23.0 °F 64% 30.01 in 10.0 mi WNW 25.3 mph 42.6 mph 0.00 in Snow Light Snow
3:51 PM 33.1 °F 20.1 °F 21.9 °F 64% 30.03 in 9.0 mi WNW 25.3 mph 38.0 mph 0.00 in Snow Light Snow
4:51 PM 33.1 °F 21.5 °F 24.1 °F 70% 30.04 in 2.0 mi WNW 19.6 mph 29.9 mph 0.00 in Snow Light Snow
4:59 PM 33.8 °F 21.9 °F 24.8 °F 70% 30.01 in 3.0 mi WNW 21.9 mph 32.2 mph 0.00 in Snow Light Snow
5:14 PM 33.8 °F 22.8 °F 24.8 °F 70% 30.01 in 4.0 mi WNW 18.4 mph 27.6 mph 0.00 in Snow Light Snow
5:51 PM 32.0 °F 19.5 °F 26.1 °F 79% 30.05 in 2.0 mi WNW 21.9 mph 29.9 mph 0.00 in Snow Light Snow
6:14 PM 32.0 °F 20.5 °F 26.6 °F 80% 30.03 in 3.0 mi WNW 18.4 mph 26.5 mph 0.00 in Snow Light Snow
6:33 PM 32.0 °F 19.8 °F 26.6 °F 80% 30.03 in 7.0 mi WNW 20.7 mph 33.4 mph 0.00 in Snow Light Snow
6:51 PM 33.1 °F 20.6 °F 25.0 °F 72% 30.07 in 10.0 mi WNW 23.0 mph 36.8 mph 0.00 in   Mostly Cloudy
7:14 PM 33.8 °F 21.6 °F 24.8 °F 70% 30.05 in 3.0 mi WNW 23.0 mph 31.1 mph 0.00 in Snow Light Snow
7:39 PM 32.0 °F 21.6 °F 26.6 °F 80% 30.05 in 5.0 mi WNW 15.0 mph 25.3 mph 0.00 in Snow Light Snow
7:51 PM 32.0 °F 20.5 °F 25.0 °F 75% 30.08 in 7.0 mi WNW 18.4 mph 28.8 mph 0.00 in Snow Light Snow
8:51 PM 33.1 °F 22.6 °F 24.1 °F 70% 30.10 in 9.0 mi WNW 16.1 mph 29.9 mph 0.00 in Snow Light Snow
9:51 PM 34.0 °F 23.4 °F 24.1 °F 67% 30.13 in 9.0 mi NW 17.3 mph 32.2 mph 0.00 in Snow Light Snow
10:35 PM 33.8 °F 23.5 °F 24.8 °F 70% 30.12 in 4.0 mi NW 16.1 mph 24.2 mph 0.00 in Snow Light Snow
10:51 PM 33.1 °F 24.9 °F 25.0 °F 72% 30.15 in 6.0 mi NW 10.4 mph - 0.00 in Snow Light Snow
11:51 PM 33.1 °F 20.3 °F 25.0 °F 72% 30.16 in 6.0 mi NW 24.2 mph 34.5 mph 0.00 in Snow Light Snow